Regional Weather Roundup
Issued by NWS

Home | Current Version | Previous Version | Text Only | Print | Product List | Glossary Off
Versions: 1 2 3 4 5 6 7 8 9 10 11 12 13 14 15 16 17 18 19 20 21 22 23 24 25 26 27 28 29 30 31 32 33 34 35 36 37 38 39 40 41 42 43 44 45 46 47 48 49 50

000
ASUS43 KDMX 060303
RWRIA

WEATHER ROUNDUP FOR IOWA
NATIONAL WEATHER SERVICE DES MOINES IA
1000 PM CDT THU MAY 05 2016

NOTE: "FAIR" INDICATES FEW OR NO CLOUDS BELOW 12,000 FEET WITH NO
SIGNIFICANT WEATHER AND/OR OBSTRUCTIONS TO VISIBILITY.

* - THESE STATIONS ARE NOT NWS STATIONS...THUS NOT UNDER NWS
QUALITY CONTROL.  THEY ALSO DO NOT REPORT WEATHER SUCH
AS PRECIPITATION OR FOG.

IAZ001>003-012>014-020>022-031>034-043>046-060400-
   NORTHWEST IOWA

CITY           SKY/WX    TMP DP  RH WIND       PRES   REMARKS
CARROLL *      CLEAR     61  41  48 SW8       29.99S
CHEROKEE *     CLEAR     57  46  67 CALM      29.98R
DENISON *      CLEAR     61  43  51 CALM      29.98R
LE MARS *      CLEAR     63  45  51 S8        29.97S
ORANGE CITY *  CLEAR     64  45  48 S5        29.97S
SHELDON *      CLEAR     63  43  48 S8        29.96R
SIOUX CITY     CLEAR     63  45  51 S8        29.97R
SPENCER        CLEAR     63  40  42 SW8       29.97R
STORM LAKE *   CLEAR     63  41  45 SW8       29.99S
$$

IAZ055>058-069>071-079>083-090>094-060400-
   SOUTHWEST IOWA

CITY           SKY/WX    TMP DP  RH WIND       PRES   REMARKS
ATLANTIC *     CLEAR     57  43  58 S3        30.01S
AUDUBON *      CLEAR     57  45  62 CALM      30.02R
CLARINDA *       N/A     54  50  87 MISG      30.04R
COUNCIL BLFS * CLEAR     66  41  39 S7        30.01S
CRESTON *      CLEAR     61  39  44 S6        30.04R
HARLAN  *      CLEAR     59  43  55 S3        30.04R
LAMONI         CLEAR     60  39  45 S6        30.03R
RED OAK *      CLEAR     59  45  58 CALM      30.02R
SHENANDOAH *   CLEAR     59  48  67 CALM      30.03R
$$

IAZ047>049-059>061-072>074-084-060400-
   CENTRAL IOWA

CITY           SKY/WX    TMP DP  RH WIND       PRES   REMARKS
AMES           CLEAR     58  39  49 S8        29.99R
ANKENY *       CLEAR     57  41  54 S3        30.00S
BOONE *        CLEAR     64  37  36 SW6       29.99R
CHARITON *     CLEAR     57  37  47 S7        30.02S
DES MOINES     CLEAR     60  38  43 S8        30.00S
GRINNELL*      CLEAR     59  36  41 SW8       30.01R
KNOXVILLE *    CLEAR     59  34  38 S6        30.00S
MARSHALLTOWN   CLEAR     58  37  45 SW8       29.98R
NEWTON *       CLEAR     57  37  47 S6        30.00R
PELLA *        CLEAR     59  35  40 S3        30.02S
PERRY *          N/A     61  45  55 S9        29.99S
$$

IAZ004>006-015-016-023>025-035-036-060400-
   NORTH CENTRAL IOWA

CITY           SKY/WX    TMP DP  RH WIND       PRES   REMARKS
ALGONA *       CLEAR     64  41  42 S8        29.97R
CLARION *      CLEAR     59  39  47 S6        29.97R
ESTHERVILLE    CLEAR     63  41  44 SW8       29.96R
FORT DODGE *   CLEAR     59  37  44 CALM      29.98S
MASON CITY     CLEAR     58  41  53 SW3       29.97R
FOREST CITY *    N/A     54  43  66 CALM      29.96S
WEBSTER CITY * CLEAR     59  39  47 S10       29.96S
IOWA FALLS *     N/A     61  39  44 SW8       29.99R
$$

IAZ007>011-017>019-026>030-037>042-050>054-066-060400-
   NORTHEAST IOWA

CITY           SKY/WX    TMP DP  RH WIND       PRES   REMARKS
CEDAR RAPIDS   CLEAR     57  36  45 CALM      29.99R
CHARLES CITY * CLEAR     59  36  41 S8        29.97S
CLINTON *      CLEAR     55  40  56 CALM      30.00R
DECORAH *      PTCLDY    61  37  41 SW6       29.95F
DUBUQUE        CLEAR     53  38  56 S3        29.99R
MONTICELLO *   CLEAR     52  41  66 S5        29.98S
OELWEIN *      CLEAR     57  37  47 S6        29.99R
WATERLOO       CLEAR     56  39  53 SE3       29.97R
$$

IAZ064-065-067-068-078-060400-
   EAST CENTRAL IOWA

CITY           SKY/WX    TMP DP  RH WIND       PRES   REMARKS
DAVENPORT      CLEAR     59  34  39 CALM      30.01R
IOWA CITY      CLEAR     54  39  57 CALM      30.01R
MT. PLEASANT * CLEAR     59  39  47 SW5       30.01R
MUSCATINE *    CLEAR     55  43  62 CALM      30.00R
QUAD CITIES    CLEAR     50  42  74 CALM      29.99R
$$

IAZ062-063-075>077-085>089-095>099-060400-
   SOUTHEAST IOWA

CITY           SKY/WX    TMP DP  RH WIND       PRES   REMARKS
BURLINGTON     CLEAR     54  40  59 CALM      30.01R
FAIRFIELD *    CLEAR     54  36  50 SW7       30.01S
FORT MADISON * CLEAR     55  39  54 CALM      30.02S
KEOKUK *       CLEAR     52  45  76 CALM      30.01S
OSKALOOSA *      N/A     57  36  44 SW6       30.02R
OTTUMWA        CLEAR     52  38  58 SW5       30.01S
WASHINGTON *   CLEAR     55  36  47 W5        30.02R
$$

ABBREVIATIONS USED IN REMARKS
   TC - TEMPERATURES IN CELSIUS
  WCI - WIND CHILL INDEX
   HX - HEAT INDEX
  VSB - VISIBILITY
$$





USA.gov is the U.S. government's official web portal to all federal, state and local government web resources and services.